Simultaneous Nadir Overpasses (SNOs) Predictions

Prediction of SNOs between AQUA and METOP-B Satellite Orbit:

Table of predicted SNOs for the next 14.0 days since TLE Epoch: 4/29/2023
Index Date (AQUA) Time (AQUA) Lat,Lon (AQUA) SZA (AQUA ) Date (METOP-B) Time (METOP-B) Lat,Lon (METOP-B) SZA (METOP-B ) Distance(km) Time Diff (sec)
1 04/30/2023 07:29:33 74.41, 63.25 59.64 04/30/2023 07:29:09 74.42, 63.21 59.65 1.48 24
2 04/30/2023 08:18:59 -74.51,-129.34 120.27 04/30/2023 08:19:49 -74.50,-129.26 120.29 2.86 50
3 05/03/2023 01:22:30 74.44, 154.98 58.83 05/03/2023 01:22:07 74.42, 154.97 58.82 1.48 23
4 05/03/2023 02:11:55 -74.48, -37.48 121.14 05/03/2023 02:12:47 -74.50, -37.50 121.12 2.65 52
5 05/05/2023 19:15:27 74.46,-113.29 58.06 05/05/2023 19:15:05 74.46,-113.18 58.06 3.25 22
6 05/05/2023 20:04:52 -74.51, 54.26 121.91 05/05/2023 20:05:46 -74.50, 54.24 121.92 0.75 54
7 05/08/2023 12:18:44 -73.79, 172.44 123.40 05/08/2023 12:17:39 -73.72, 169.41 123.39 94.82 65
8 05/08/2023 13:08:22 74.44, -21.44 57.28 05/08/2023 13:08:04 74.45, -21.47 57.29 1.18 18
9 05/08/2023 13:57:48 -74.53, 145.99 122.64 05/08/2023 13:58:44 -74.54, 146.09 122.64 2.99 56
10 05/11/2023 06:11:42 -73.97, -96.17 123.93 05/11/2023 06:10:34 -73.90, -98.43 123.95 69.78 68
11 05/11/2023 07:01:17 74.48, 70.28 56.59 05/11/2023 07:01:02 74.47, 70.34 56.58 1.91 15
12 05/11/2023 07:50:42 -74.52,-122.17 123.38 05/11/2023 07:51:43 -74.51,-122.22 123.39 1.60 61



Historial Predications of SNOs between AQUA and METOP-B
